This demonstration page uses our WeatherBlox Daily Observations layout. Learn more.

Left ArrowRight Arrow

Hourly Observations for January 31, 2023

Temp ( °F °C ) Dew Point ( °F °C ) Humidity (%) Winds ( mph kmh ) Pressure ( in mb ) Visibility ( mi km ) Precip ( " mm )
12:56 am 00:56 Cloudy 6 -14.4 -1 -18.3 72 72 WSW 9 15 30.49 1033 10 16 0.00 0.00
1:56 am 01:56 Mostly Cloudy 6 -14.4 -1 -18.3 72 72 WSW 8 13 30.47 1032 10 16 0.00 0.00
2:56 am 02:56 Cloudy 7 -13.9 0 -17.8 72 72 SW 12 19 30.46 1031 10 16 0.00 0.00
3:56 am 03:56 Cloudy 8 -13.3 1 -17.2 72 72 WSW 8 13 30.43 1030 10 16 0.00 0.00
4:56 am 04:56 Cloudy 8 -13.3 2 -16.7 75 75 W 12 19 30.43 1030 10 16 0.00 0.00
5:56 am 05:56 Cloudy 9 -12.8 2 -16.7 72 72 WSW 10 17 30.44 1031 10 16 0.00 0.00
6:56 am 06:56 Mostly Clear 8 -13.3 1 -17.2 72 72 W 8 13 30.43 1030 10 16 0.00 0.00
7:56 am 07:56 Sunny 7 -13.9 -1 -18.3 69 69 W 8 13 30.44 1031 10 16 0.00 0.00
8:56 am 08:56 Sunny 9 -12.8 -1 -18.3 63 63 W 10 17 30.45 1031 10 16 0.00 0.00
9:56 am 09:56 Sunny 12 -11.1 -2 -18.9 52 52 W 9 15 30.44 1031 10 16 0.00 0.00
10:56 am 10:56 Sunny 14 -10 -1 -18.3 50 50 W 9 15 30.44 1031 10 16 0.00 0.00
11:56 am 11:56 Sunny 19 -7.2 0 -17.8 42 42 W 8 13 30.41 1030 10 16 0.00 0.00
12:56 pm 12:56 Sunny 23 -5 2 -16.7 39 39 W 7 11 30.37 1028 10 16 0.00 0.00
1:39 pm 13:39 Mostly Sunny 19 -7 1 -17 45 45 WSW 7 11 30.39 1029 10 16 0.00 0.00
1:56 pm 13:56 undefined 20 -6.7 1 -17.2 43 43 W 8 13 30.38 1029 N/A 0.00 0.00
2:56 pm 14:56 Sunny 18 -7.8 6 -14.4 59 59 SSW 9 15 30.38 1029 10 16 0.00 0.00
3:56 pm 15:56 Sunny 18 -7.8 6 -14.4 59 59 SSW 14 22 30.38 1029 10 16 0.00 0.00
4:56 pm 16:56 Sunny 17 -8.3 6 -14.4 61 61 SSW 9 15 30.39 1029 10 16 0.00 0.00
5:56 pm 17:56 Clear 15 -9.4 6 -14.4 67 67 SW 12 19 30.40 1029 10 16 0.00 0.00
6:56 pm 18:56 Clear 14 -10 6 -14.4 70 70 SSW 8 13 30.40 1030 10 16 0.00 0.00
7:56 pm 19:56 Clear 12 -11.1 5 -15 73 73 SW 7 11 30.42 1030 10 16 0.00 0.00
8:56 pm 20:56 Clear 12 -11.1 6 -14.4 76 76 SW 14 22 30.42 1030 10 16 0.00 0.00
9:56 pm 21:56 Clear 11 -11.7 4 -15.6 73 73 SW 13 20 30.42 1030 10 16 0.00 0.00
10:56 pm 22:56 Clear 11 -11.7 4 -15.6 73 73 WSW 7 11 30.41 1030 10 16 0.00 0.00
11:56 pm 23:56 Clear 11 -11.7 3 -16.1 70 70 WSW 9 15 30.41 1030 10 16 0.00 0.00

Powered by AerisWeather